Location: Blangy-Tronville
(49.8790°N, 2.4226°E)
Time: 00:16:49
(UTC+00:00)

Cosmos 468 Rocket - Pass Details

Date: 18 November 2025
Orbit: 740 x 774 km, 74.0° (Epoch: 04 December)

Event Time Altitude Azimuth Distance (km) Brightness Sun altitude
Rises 17:39:57 0° 335° (NNW) 3,237 7.4 -15.4°
Reaches altitude 10° 17:42:20 10° 335° (NNW) 2,302 6.6 -15.8°
Maximum altitude 17:47:34 85° 248° (WSW) 764 4.0 -16.6°
Drops below altitude 10° 17:52:43 10° 160° (SSE) 2,263 6.3 -17.4°
Sets 17:55:03 0° 160° (SSE) 3,178 7.1 -17.8°
